Weather History for KVOK - October, 2012

Change the Weather History Date:

Friday, October 5, 2012

  Actual Average Record
Temperature  
Mean Temperature 43 °F -  
Max Temperature 51 °F 60 °F 82 °F (2005)
Min Temperature 35 °F 42 °F 23 °F (2004)
Degree Days  
Heating Degree Days 22    
Moisture  
Dew Point 27 °F    
Average Humidity 55    
Maximum Humidity 81    
Minimum Humidity 38    
Precipitation  
Precipitation 0.00 in - - ()
Sea Level Pressure  
Sea Level Pressure 30.08 in    
Wind  
Wind Speed 11 mph (West)    
Max Wind Speed 20 mph    
Max Gust Speed 25 mph    
Visibility 10 miles    
Events      
Averages and records for this station are not official NWS values.
T = Trace of Precipitation, MM = Missing Value Source: NWS Daily Summary

Daily Weather History Graph

Daily Weather History Graph

Search for Another Location

Airport or City:

Trip Planner

Search our weather history database for the weather conditions in past years. The results will help you decide how hot, cold, wet, or windy it might be!

Date:

Astronomy

Oct. 05, 2012 Rise Set
Actual Time 7:03 AM CDT 6:33 PM CDT
Civil Twilight 6:35 AM CDT 7:02 PM CDT
Nautical Twilight 6:01 AM CDT 7:35 PM CDT
Astronomical Twilight 5:28 AM CDT 8:09 PM CDT
Moon 9:47 PM CDT (10/5) 12:21 PM CDT (10/5)
Length of Visible Light 12h 27m
Length of Day
11h 29m
Waning Gibbous, 74% of the Moon is Illuminated
Oct 5
Waning Gibbous
Oct 8
Last Quarter
Oct 15
New
Oct 21
First Quarter
Oct 29
Full

Hourly Weather History & Observations

Time (CDT) Temp. Windchill Dew Point Humidity Pressure Visibility Wind Dir Wind Speed Gust Speed Precip Events Conditions
12:55 AM 41.2 °F 36.6 °F 30.4 °F 65% 30.11 in 10.0 mi West 6.9 mph - N/A   Overcast
1:55 AM 38.8 °F 33.2 °F 28.6 °F 67% 30.13 in 10.0 mi WSW 8.1 mph - N/A   Partly Cloudy
2:55 AM 37.9 °F 31.5 °F 28.0 °F 68% 30.11 in 10.0 mi West 9.2 mph - N/A   Clear
3:55 AM 39.4 °F 34.5 °F 28.9 °F 66% 30.11 in 10.0 mi WSW 6.9 mph - N/A   Overcast
4:55 AM 38.5 °F 32.1 °F 30.0 °F 72% 30.10 in 10.0 mi West 9.2 mph - N/A   Mostly Cloudy
5:55 AM 36.5 °F 30.3 °F 29.8 °F 77% 30.11 in 10.0 mi WSW 8.1 mph - N/A   Clear
6:55 AM 35.6 °F 28.6 °F 30.2 °F 81% 30.12 in 10.0 mi WSW 9.2 mph - N/A   Scattered Clouds
7:55 AM 39.2 °F 33.0 °F 30.2 °F 70% 30.11 in 10.0 mi WSW 9.2 mph - N/A   Scattered Clouds
8:55 AM 42.8 °F 37.5 °F 30.2 °F 61% 30.10 in 10.0 mi SW 9.2 mph - N/A   Partly Cloudy
9:55 AM 44.6 °F 37.4 °F 28.4 °F 53% 30.10 in 10.0 mi West 16.1 mph 24.2 mph N/A   Mostly Cloudy
10:55 AM 44.6 °F 37.4 °F 26.6 °F 49% 30.10 in 10.0 mi West 16.1 mph 23.0 mph N/A   Mostly Cloudy
11:55 AM 46.4 °F 39.5 °F 26.6 °F 46% 30.09 in 10.0 mi WSW 17.3 mph 21.9 mph N/A   Mostly Cloudy
12:55 PM 48.2 °F - 24.8 °F 40% 30.07 in 10.0 mi West 15.0 mph 25.3 mph N/A   Clear
1:55 PM 49.6 °F - 26.2 °F 40% 30.04 in 10.0 mi West 17.3 mph - N/A   Clear
2:55 PM 51.3 °F - 26.6 °F 38% 30.03 in 10.0 mi West 18.4 mph 25.3 mph N/A   Clear
3:55 PM 49.1 °F - 26.1 °F 41% 30.04 in 10.0 mi West 17.3 mph 25.3 mph N/A   Scattered Clouds
4:55 PM 48.6 °F - 26.1 °F 42% 30.04 in 10.0 mi West 15.0 mph 25.3 mph N/A   Partly Cloudy
5:55 PM 46.9 °F - 25.7 °F 44% 30.04 in 10.0 mi WNW 19.6 mph - N/A   Clear
6:55 PM 45.1 °F 39.5 °F 26.4 °F 48% 30.06 in 10.0 mi West 11.5 mph - N/A   Overcast
7:55 PM 44.6 °F 38.4 °F 26.2 °F 49% 30.07 in 10.0 mi WNW 12.7 mph 21.9 mph N/A   Overcast
8:55 PM 43.3 °F 35.5 °F 25.5 °F 49% 30.08 in 10.0 mi NW 17.3 mph 24.2 mph N/A   Overcast
9:55 PM 41.0 °F 33.1 °F 24.3 °F 51% 30.09 in 10.0 mi WNW 15.0 mph 23.0 mph N/A   Overcast
10:55 PM 40.3 °F 32.6 °F 23.9 °F 52% 30.09 in 10.0 mi WNW 13.8 mph 20.7 mph N/A   Overcast
11:55 PM 40.3 °F 33.0 °F 23.0 °F 50% 30.08 in 10.0 mi WNW 12.7 mph - N/A   Overcast